DAL2120 KLAS-KLAX

Flight info

Callsign DAL2120
Flight time 0h 39m
Altitude 24000
Route RADYR2 BLAQQ SHTNR ANJLL4
Aircraft B739/M-SDE2E3FGHIRWXY/LB1

Departure

Time 2026-05-07 01:36
Airport Harry Reid International Airport (KLAS)

Arrival

Time 2026-05-07 02:15
Airport Los Angeles International Airport (KLAX)
Time Latitude Longitude Altitude Speed Heading
2026-05-07 00:11 36.08040 -115.13879 2097 ft 0 kts 342°
2026-05-07 01:27 36.08028 -115.13874 2097 ft 2 kts 342°
2026-05-07 01:27 36.08014 -115.13869 2097 ft 2 kts 342°
2026-05-07 01:28 36.07999 -115.13863 2097 ft 2 kts 342°
2026-05-07 01:28 36.07985 -115.13857 2097 ft 2 kts 347°
2026-05-07 01:28 36.07970 -115.13858 2097 ft 2 kts 14°
2026-05-07 01:28 36.07956 -115.13865 2098 ft 2 kts 36°
2026-05-07 01:29 36.07950 -115.13871 2098 ft 1 kts 49°
2026-05-07 01:29 36.07947 -115.13875 2099 ft 0 kts 46°
2026-05-07 01:31 36.07948 -115.13874 2099 ft 0 kts 46°
2026-05-07 01:31 36.07965 -115.13854 2097 ft 7 kts 45°
2026-05-07 01:31 36.08007 -115.13799 2095 ft 10 kts 54°
2026-05-07 01:32 36.07996 -115.13720 2093 ft 11 kts 135°
2026-05-07 01:32 36.07941 -115.13652 2092 ft 11 kts 135°
2026-05-07 01:32 36.07885 -115.13582 2091 ft 12 kts 135°
2026-05-07 01:32 36.07831 -115.13507 2090 ft 12 kts 111°
2026-05-07 01:33 36.07823 -115.13397 2087 ft 13 kts 120°
2026-05-07 01:33 36.07758 -115.13343 2087 ft 11 kts 110°
2026-05-07 01:33 36.07753 -115.13246 2085 ft 12 kts 91°
2026-05-07 01:33 36.07754 -115.13136 2082 ft 14 kts 90°
2026-05-07 01:34 36.07753 -115.13011 2080 ft 15 kts 89°
2026-05-07 01:34 36.07754 -115.12877 2077 ft 16 kts 90°
2026-05-07 01:34 36.07754 -115.12731 2074 ft 18 kts 89°
2026-05-07 01:34 36.07742 -115.12614 2073 ft 6 kts 136°
2026-05-07 01:35 36.07704 -115.12602 2073 ft 5 kts 178°
2026-05-07 01:35 36.07661 -115.12604 2073 ft 7 kts 207°
2026-05-07 01:35 36.07643 -115.12673 2074 ft 10 kts 271°
2026-05-07 01:35 36.07644 -115.12860 2078 ft 50 kts 270°
2026-05-07 01:36 36.07642 -115.13552 2094 ft 110 kts 270°
2026-05-07 01:36 36.07640 -115.14717 2129 ft 160 kts 270°
2026-05-07 01:36 36.07631 -115.16241 2399 ft 183 kts 270°
2026-05-07 01:36 36.07604 -115.17761 3064 ft 180 kts 270°
2026-05-07 01:37 36.07573 -115.19329 3563 ft 190 kts 270°
2026-05-07 01:37 36.07534 -115.21006 3909 ft 203 kts 269°
2026-05-07 01:37 36.07449 -115.22796 4255 ft 216 kts 265°
2026-05-07 01:37 36.07155 -115.24695 4538 ft 234 kts 251°
2026-05-07 01:38 36.06271 -115.26406 4962 ft 246 kts 222°
2026-05-07 01:38 36.04710 -115.27452 5226 ft 266 kts 198°
2026-05-07 01:38 36.02887 -115.28053 5614 ft 279 kts 194°
2026-05-07 01:38 36.00995 -115.28688 6157 ft 285 kts 197°
2026-05-07 01:39 35.99083 -115.29369 6712 ft 289 kts 194°
2026-05-07 01:39 35.97123 -115.29921 7291 ft 292 kts 192°
2026-05-07 01:39 35.95141 -115.30428 7924 ft 293 kts 192°
2026-05-07 01:39 35.93130 -115.30909 8457 ft 297 kts 191°
2026-05-07 01:40 35.91100 -115.31395 9186 ft 297 kts 191°
2026-05-07 01:40 35.89087 -115.31885 9954 ft 297 kts 191°
2026-05-07 01:40 35.87059 -115.32382 10628 ft 303 kts 191°
2026-05-07 01:40 35.84952 -115.32898 11105 ft 316 kts 191°
2026-05-07 01:41 35.82743 -115.33441 11276 ft 334 kts 191°
2026-05-07 01:41 35.80400 -115.34015 11386 ft 354 kts 191°
2026-05-07 01:41 35.77923 -115.34624 11534 ft 372 kts 191°
2026-05-07 01:41 35.75332 -115.35259 11917 ft 383 kts 191°
2026-05-07 01:42 35.72707 -115.35900 12517 ft 388 kts 191°
2026-05-07 01:42 35.70058 -115.36547 13159 ft 392 kts 191°
2026-05-07 01:42 35.67379 -115.37206 13798 ft 396 kts 191°
2026-05-07 01:42 35.64674 -115.37865 14446 ft 400 kts 190°
2026-05-07 01:43 35.61933 -115.38425 15099 ft 403 kts 186°
2026-05-07 01:43 35.59145 -115.38687 15763 ft 405 kts 180°
2026-05-07 01:43 35.56309 -115.38654 16418 ft 407 kts 175°
2026-05-07 01:43 35.53487 -115.38459 17086 ft 409 kts 174°
2026-05-07 01:44 35.50651 -115.38201 17704 ft 412 kts 173°
2026-05-07 01:44 35.47786 -115.37947 18250 ft 417 kts 174°
2026-05-07 01:44 35.44875 -115.38012 18816 ft 425 kts 185°
2026-05-07 01:44 35.42009 -115.38890 19440 ft 429 kts 199°
2026-05-07 01:45 35.39267 -115.40346 20019 ft 433 kts 205°
2026-05-07 01:45 35.36558 -115.42029 20561 ft 437 kts 207°
2026-05-07 01:45 35.33873 -115.43794 21062 ft 442 kts 208°
2026-05-07 01:45 35.31171 -115.45595 21582 ft 446 kts 208°
2026-05-07 01:46 35.28452 -115.47403 22129 ft 448 kts 208°
2026-05-07 01:46 35.25706 -115.49211 22615 ft 452 kts 207°
2026-05-07 01:46 35.22934 -115.51032 23079 ft 456 kts 208°
2026-05-07 01:46 35.20137 -115.52848 23600 ft 458 kts 207°
2026-05-07 01:47 35.17292 -115.54678 24023 ft 463 kts 207°
2026-05-07 01:47 35.14490 -115.56640 24121 ft 467 kts 212°
2026-05-07 01:47 35.11866 -115.58934 24101 ft 464 kts 219°
2026-05-07 01:47 35.09454 -115.61511 24092 ft 461 kts 224°
2026-05-07 01:48 35.07166 -115.64245 24083 ft 463 kts 226°
2026-05-07 01:48 35.04933 -115.67065 24069 ft 463 kts 227°
2026-05-07 01:48 35.02732 -115.69914 24058 ft 462 kts 227°
2026-05-07 01:48 35.00527 -115.72786 24038 ft 461 kts 227°
2026-05-07 01:49 34.98346 -115.75624 24025 ft 461 kts 227°
2026-05-07 01:49 34.96155 -115.78462 24031 ft 462 kts 227°
2026-05-07 01:49 34.93957 -115.81297 24036 ft 462 kts 227°
2026-05-07 01:49 34.91753 -115.84127 24033 ft 462 kts 227°
2026-05-07 01:50 34.89539 -115.86960 24038 ft 462 kts 227°
2026-05-07 01:50 34.87331 -115.89776 24043 ft 461 kts 227°
2026-05-07 01:50 34.85107 -115.92607 24040 ft 461 kts 227°
2026-05-07 01:50 34.82898 -115.95413 24042 ft 461 kts 227°
2026-05-07 01:51 34.80683 -115.98221 24041 ft 461 kts 227°
2026-05-07 01:51 34.78466 -116.01029 24042 ft 463 kts 227°
2026-05-07 01:51 34.76243 -116.03843 24046 ft 463 kts 227°
2026-05-07 01:51 34.74029 -116.06655 24041 ft 462 kts 227°
2026-05-07 01:52 34.71818 -116.09469 24044 ft 462 kts 227°
2026-05-07 01:52 34.69591 -116.12308 24046 ft 462 kts 227°
2026-05-07 01:52 34.67374 -116.15132 24054 ft 463 kts 227°
2026-05-07 01:52 34.65158 -116.17952 24052 ft 463 kts 227°
2026-05-07 01:53 34.62944 -116.20767 24056 ft 462 kts 227°
2026-05-07 01:53 34.60727 -116.23582 24073 ft 464 kts 227°
2026-05-07 01:53 34.58502 -116.26406 24083 ft 465 kts 227°
2026-05-07 01:53 34.56279 -116.29222 24082 ft 462 kts 227°
2026-05-07 01:54 34.54047 -116.32047 24086 ft 464 kts 227°
2026-05-07 01:54 34.51820 -116.34861 24093 ft 465 kts 227°
2026-05-07 01:54 34.49594 -116.37675 24087 ft 463 kts 227°
2026-05-07 01:54 34.47371 -116.40483 24092 ft 464 kts 227°
2026-05-07 01:55 34.45143 -116.43303 24100 ft 464 kts 228°
2026-05-07 01:55 34.43032 -116.46236 24103 ft 463 kts 233°
2026-05-07 01:55 34.41159 -116.49386 24108 ft 462 kts 239°
2026-05-07 01:55 34.39510 -116.52730 24109 ft 461 kts 243°
2026-05-07 01:56 34.38011 -116.56147 24117 ft 461 kts 245°
2026-05-07 01:56 34.36585 -116.59593 24131 ft 457 kts 246°
2026-05-07 01:56 34.35215 -116.62978 24148 ft 441 kts 247°
2026-05-07 01:56 34.33897 -116.66248 24162 ft 424 kts 246°
2026-05-07 01:57 34.32629 -116.69396 24176 ft 407 kts 246°
2026-05-07 01:57 34.31426 -116.72414 24186 ft 392 kts 247°
2026-05-07 01:57 34.30269 -116.75343 24088 ft 380 kts 247°
2026-05-07 01:57 34.29145 -116.78195 23801 ft 377 kts 247°
2026-05-07 01:58 34.28013 -116.81065 23394 ft 383 kts 247°
2026-05-07 01:58 34.26861 -116.83965 22955 ft 384 kts 247°
2026-05-07 01:58 34.25739 -116.86772 22540 ft 383 kts 247°
2026-05-07 01:58 34.24552 -116.89726 22104 ft 381 kts 246°
2026-05-07 01:59 34.23400 -116.92586 21672 ft 379 kts 246°
2026-05-07 01:59 34.22244 -116.95454 21234 ft 378 kts 247°
2026-05-07 01:59 34.21120 -116.98297 20802 ft 376 kts 249°
2026-05-07 01:59 34.20169 -117.01202 20372 ft 373 kts 253°
2026-05-07 02:00 34.19358 -117.04146 19929 ft 371 kts 256°
2026-05-07 02:00 34.18595 -117.07097 19480 ft 369 kts 256°
2026-05-07 02:00 34.17840 -117.10039 19039 ft 368 kts 256°
2026-05-07 02:00 34.17080 -117.12975 18594 ft 367 kts 256°
2026-05-07 02:01 34.16309 -117.15915 18142 ft 366 kts 256°
2026-05-07 02:01 34.15531 -117.18820 17743 ft 364 kts 255°
2026-05-07 02:01 34.14749 -117.21694 17340 ft 361 kts 255°
2026-05-07 02:01 34.13964 -117.24554 16906 ft 361 kts 255°
2026-05-07 02:02 34.13177 -117.27408 16472 ft 360 kts 255°
2026-05-07 02:02 34.12390 -117.30251 16037 ft 359 kts 255°
2026-05-07 02:02 34.11606 -117.33089 15601 ft 358 kts 255°
2026-05-07 02:02 34.10817 -117.35942 15158 ft 356 kts 255°
2026-05-07 02:03 34.10057 -117.38744 14737 ft 350 kts 256°
2026-05-07 02:03 34.09352 -117.41504 14324 ft 343 kts 257°
2026-05-07 02:03 34.08680 -117.44229 13913 ft 338 kts 257°
2026-05-07 02:03 34.08023 -117.46911 13501 ft 333 kts 257°
2026-05-07 02:04 34.07369 -117.49563 13109 ft 331 kts 257°
2026-05-07 02:04 34.06708 -117.52215 12702 ft 331 kts 256°
2026-05-07 02:04 34.06032 -117.54881 12295 ft 331 kts 256°
2026-05-07 02:04 34.05356 -117.57520 11900 ft 330 kts 256°
2026-05-07 02:05 34.04681 -117.60152 11505 ft 330 kts 256°
2026-05-07 02:05 34.04006 -117.62778 11100 ft 329 kts 256°
2026-05-07 02:05 34.03336 -117.65397 10700 ft 327 kts 255°
2026-05-07 02:05 34.02673 -117.67981 10310 ft 322 kts 255°
2026-05-07 02:06 34.02130 -117.70544 9973 ft 312 kts 262°
2026-05-07 02:06 34.01812 -117.73079 9695 ft 302 kts 266°
2026-05-07 02:06 34.01584 -117.75561 9289 ft 297 kts 267°
2026-05-07 02:06 34.01378 -117.78005 8952 ft 292 kts 266°
2026-05-07 02:07 34.01165 -117.80410 8588 ft 289 kts 265°
2026-05-07 02:07 34.00718 -117.85124 7896 ft 280 kts 264°
2026-05-07 02:07 34.00493 -117.87431 7502 ft 277 kts 263°
2026-05-07 02:08 34.00272 -117.89713 7156 ft 270 kts 263°
2026-05-07 02:08 34.00061 -117.91918 6928 ft 263 kts 263°
2026-05-07 02:08 33.99848 -117.94126 6565 ft 267 kts 263°
2026-05-07 02:08 33.99631 -117.96323 6274 ft 263 kts 263°
2026-05-07 02:09 33.99416 -117.98502 6019 ft 260 kts 263°
2026-05-07 02:09 33.99204 -118.00640 5883 ft 257 kts 263°
2026-05-07 02:09 33.98997 -118.02742 5639 ft 250 kts 263°
2026-05-07 02:09 33.98792 -118.04789 5422 ft 241 kts 263°
2026-05-07 02:10 33.98597 -118.06750 5228 ft 234 kts 263°
2026-05-07 02:10 33.98407 -118.08671 5023 ft 230 kts 263°
2026-05-07 02:10 33.98219 -118.10554 4831 ft 225 kts 263°
2026-05-07 02:10 33.98033 -118.12411 4636 ft 225 kts 263°
2026-05-07 02:11 33.97846 -118.14274 4395 ft 223 kts 263°
2026-05-07 02:11 33.97661 -118.16124 4148 ft 225 kts 263°
2026-05-07 02:11 33.97472 -118.18004 3816 ft 226 kts 263°
2026-05-07 02:11 33.97283 -118.19874 3497 ft 226 kts 263°
2026-05-07 02:12 33.97093 -118.21745 3174 ft 226 kts 263°
2026-05-07 02:12 33.96904 -118.23610 2848 ft 224 kts 263°
2026-05-07 02:12 33.96717 -118.25440 2546 ft 219 kts 263°
2026-05-07 02:12 33.96537 -118.27232 2270 ft 213 kts 263°
2026-05-07 02:13 33.96359 -118.28968 1973 ft 205 kts 263°
2026-05-07 02:13 33.96195 -118.30606 1699 ft 190 kts 263°
2026-05-07 02:13 33.96040 -118.32122 1465 ft 175 kts 263°
2026-05-07 02:13 33.95895 -118.33511 1234 ft 161 kts 263°
2026-05-07 02:14 33.95765 -118.34797 1032 ft 152 kts 263°
2026-05-07 02:14 33.95637 -118.36046 842 ft 150 kts 263°
2026-05-07 02:14 33.95509 -118.37285 645 ft 149 kts 263°
2026-05-07 02:14 33.95384 -118.38511 446 ft 148 kts 263°
2026-05-07 02:15 33.95259 -118.39729 255 ft 146 kts 263°
2026-05-07 02:15 33.95140 -118.40916 149 ft 136 kts 263°
2026-05-07 02:15 33.95036 -118.41894 135 ft 87 kts 264°
2026-05-07 02:15 33.94988 -118.42357 133 ft 36 kts 261°
2026-05-07 02:16 33.94891 -118.42626 130 ft 34 kts 233°
2026-05-07 02:16 33.94851 -118.42681 129 ft 0 kts 226°
2026-05-07 02:16 33.94827 -118.42709 129 ft 10 kts 222°
2026-05-07 02:17 33.94732 -118.42773 127 ft 21 kts 194°
2026-05-07 02:17 33.94632 -118.42715 126 ft 21 kts 84°
2026-05-07 02:17 33.94651 -118.42550 128 ft 19 kts 83°
2026-05-07 02:17 33.94666 -118.42397 129 ft 18 kts 83°
2026-05-07 02:18 33.94681 -118.42257 130 ft 16 kts 83°
2026-05-07 02:18 33.94695 -118.42129 131 ft 15 kts 83°
2026-05-07 02:18 33.94706 -118.42013 132 ft 13 kts 83°
2026-05-07 02:18 33.94717 -118.41911 133 ft 11 kts 83°
2026-05-07 02:19 33.94726 -118.41823 134 ft 10 kts 83°
2026-05-07 02:19 33.94734 -118.41746 134 ft 9 kts 83°
2026-05-07 02:19 33.94741 -118.41681 135 ft 7 kts 83°
2026-05-07 02:19 33.94746 -118.41624 135 ft 8 kts 83°
2026-05-07 02:20 33.94755 -118.41542 136 ft 12 kts 83°
2026-05-07 02:20 33.94771 -118.41420 136 ft 17 kts 73°
2026-05-07 02:20 33.94797 -118.41262 138 ft 22 kts 84°
2026-05-07 02:20 33.94816 -118.41080 138 ft 22 kts 82°
2026-05-07 02:21 33.94834 -118.40904 138 ft 21 kts 83°
2026-05-07 02:21 33.94852 -118.40730 137 ft 21 kts 83°
2026-05-07 02:21 33.94845 -118.40606 136 ft 11 kts 147°
2026-05-07 02:21 33.94785 -118.40588 136 ft 8 kts 168°
2026-05-07 02:22 33.94742 -118.40580 137 ft 5 kts 175°
2026-05-07 02:22 33.94713 -118.40576 137 ft 3 kts 172°
2026-05-07 02:22 33.94697 -118.40574 137 ft 1 kts 186°
2026-05-07 02:22 33.94686 -118.40582 137 ft 3 kts 232°
2026-05-07 02:23 33.94678 -118.40612 137 ft 4 kts 261°
2026-05-07 02:23 33.94676 -118.40633 138 ft 1 kts 263°
2026-05-07 02:23 33.94676 -118.40637 138 ft 1 kts 263°
2026-05-07 02:23 33.94675 -118.40645 138 ft 0 kts 263°